Regional Weather Roundup
Issued by NWS Charleston, SC

Current Version | Previous Version | Graphics & Text | Print | Product List | Glossary On
Versions: 1 2 3 4 5 6 7 8 9 10 11 12 13 14 15 16 17 18 19 20 21 22 23 24 25 26 27 28 29 30 31 32 33 34 35 36 37 38 39 40 41 42 43 44 45 46 47 48 49 50
309
ASUS42 KCHS 211327
RWRCHS

Regional Weather Roundup
National Weather Service Charleston SC
900 AM EDT SAT APR 21 2018

NOTE: "fair" indicates few or no clouds below 12,000 feet with no
significant weather and/or obstructions to visibility.

Not all stations are quality controlled. Use data with caution,
especially dewpoint observations.

SCZ027-030-031-034>040-042>050-211400-
...Southeast South Carolina...

CITY           SKY/WX    TMP DP  RH WIND       PRES   REMARKS
N Charleston   FAIR      59  46  62 NE10      30.36R
Waterfront Prk NOT AVBL
Mount Pleasant FAIR      63  48  59 NE3       30.36F
Johns Island   PTSUNNY   63  48  59 NE8       30.35S
Pinopolis        N/A     54  46  76 E9        30.29R
Moncks Corner  FAIR      59  41  51 NE10      30.38S
Summerville    FAIR      55  46  71 N5        30.38S
Beaufort MCAS  PTSUNNY   60  48  64 NE9       30.35R
Beaufort Arpt  FAIR      61  46  59 NE12G18   30.34S
Hilton Head Is PTSUNNY   63  48  59 NE10      30.34R
Walterboro     FAIR      59  41  51 E10       30.37S
Allendale      FAIR      57  46  67 CALM      30.36S

...Southern Midlands and Pee Dee...

CITY           SKY/WX    TMP DP  RH WIND       PRES   REMARKS
Georgetown     FAIR      63  41  45 E13       30.39S
Kingstree      FAIR      55  45  67 CALM      30.41R
Orangeburg     FAIR      54  44  69 NE6       30.39R
Barnwell       FAIR      57  45  62 NE8       30.38S
Aiken          FAIR      54  43  66 E5        30.41S
Manning        FAIR      52  41  66 NE6       30.40R
Columbia       FAIR      52  45  77 CALM      30.40S
Sumter         FAIR      54  45  70 NE6       30.38S HAZE
Florence       FAIR      54  46  74 NE3       30.42R
Myrtle Beach   FAIR      60  45  57 NE9       30.41R
N Myrtle Beach FAIR      58  44  60 NE8       30.40R

$$

GAZ063-065-086>088-099>101-113>116-118-119-134>141-150-211400-
...Southeast Georgia...

CITY           SKY/WX    TMP DP  RH WIND       PRES   REMARKS
Savannah Arpt  PTSUNNY   60  49  66 NE9       30.33S
Hunter AAF     PTSUNNY   62  49  63 NE8       30.30R
Fort Stewart   FAIR      59  47  66 NE8       30.29F
Statesboro     FAIR      59  42  52 E9        30.34S
Sylvania       FAIR      59  48  67 E9        30.36S
Claxton        FAIR      62  48  61 NE12      30.33S

...CSRA, Central and far Southeast Georgia...

CITY           SKY/WX    TMP DP  RH WIND       PRES   REMARKS
Thomson        FAIR      54  44  69 S3        30.43S
Augusta-Bush   FAIR      51  46  83 N3        30.38R
Augusta-Daniel FAIR      56  43  61 E7        30.38R
Swainsboro     FAIR      57  46  67 E9        30.36S
Vidalia        FAIR      59  48  67 E12       30.32S
Eastman        FAIR      60  37  42 E10G16    30.35S
Hazlehurst     CLOUDY    59  46  60 E9        30.30S
Alma           CLOUDY    59  47  64 E8        30.29R
Waycross       CLOUDY    59  54  85 NE7       30.28S
Jesup          NOT AVBL
Baxley         CLOUDY    59  46  63 E10G16    30.30R
Brunswick      PTSUNNY   64  52  63 NE17G25   30.28F
Saint Simons   CLOUDY    66  56  70 NE17G29   30.26S

$$

SCZ027-028-034-036>038-045-046-048>050-GAZ119-141-211400-
...Lake and Supplemental Coastal Observations...

STATION/POSITION TIME  TEMP    WIND        PRES    WAVE   SWELL
                       AIR SEA DIR/SP/G            HT/PER HT/PER/DIR
                 (UTC) (F)     (DEG/KT/KT) (MB)    (FT/S) (FT/S/D)
Winyah Bay       1245   61      70/ 12     1029.0R
Lake Murray      1220   51      40/  3/  4 1028.8R
ACE Basin NERRS  1245   57     350/  4       N/A
Fort Pulaski     1300   63 65   70/ 17/ 20 1027.0
Sapelo Island    1300   64      50/ 12     1026.0

$$

ANZ835-935-AMZ111-154-330-350-352-354-370-450-454-472-211400-
...C-MAN and Buoy Observations...

STATION/POSITION TIME  TEMP    WIND        PRES    WAVE   SWELL
                       AIR SEA DIR/SP/G            HT/PER HT/PER/DIR
                 (UTC) (F)     (DEG/KT/KT) (MB)    (FT/S) (FT/S/D)
Buoy 41004       1310   65 67   70/ 16/ 19 1027.5
Buoy 41008       1250   65 64   60/ 19/ 21 1025.1R   6/ 6   2/ 90/15
Folly Beach CMAN 1300   62      60/ 18/ 20 1028.2R
Capers Nearshore 1308   62 63   60/ 16/ 21 1027.9R
Fripp Nearshore  1308   63 63   60/ 17/ 23 1026.6R


STATION/POSITION TIME  TEMP    WIND        PRES    WAVE   SWELL
                       AIR SEA DIR/SP/G            HT/PER HT/PER/DIR
                 (UTC) (F)     (DEG/KT/KT) (MB)    (FT/S) (FT/S/D)
5E St. Marys GA  1300      66                N/A     6/ 6   2/ 80/11
Frying Pan Buoy  1310   62 66   60/ 16/ 19 1028.8
Buoy 41025       1310   55 68   10/ 16/ 19 1030.2
Cape Lookout NC  1300           50/ 14/ 15 1030.4R
Buoy 41002       1310   63 72   70/ 12/ 16 1026.7
Buoy 41010       1310   72 74   70/ 21/ 27 1022.9
St Augustine FL  1300   70 66  100/ 11/ 12 1023.0R


$$




USA.gov is the U.S. government's official web portal to all federal, state and local government web resources and services.